Find Starlink 31783

NORAD ID: 59750 Int'l Des: 2024-090 Owner: SPXS Country: US Constellation: starlink operational
LEOCIRCULAR

Current View

Loading 3D Globe...

About Starlink 31783

Starlink 31783 (NORAD 59750) is a starlink constellation satellite (v2 mini) launched May 13, 2024 by SPXS of US. It operates in LEO, CIRCULAR orbit with a mass of 730.00 kg.

Upcoming Passes

Passes for default location (London). Set your location on the main map for personalized predictions.

Altitude History

Loading altitude history...

Two-Line Element Set

1 59750U 24090W 26263.06914660 .00002144 00000-0 87406-4 0 9992
2 59750 43.0020 166.1096 0000899 345.6345 14.4480 15.27584267133153
Epoch: Sep 20, 2026 • Age: 30 hours

Current Status

Altitude 483.2 km
Apogee / Perigee N/A
Velocity 7.63 km/s
Sub-Earth Point 30.03°N, 81.69°E
Launch Date May 13, 2024
Age 2.3 years
Type internet

Technical Details

Classification Payload
Mass 730.00 kg
Dry Mass 700.00 kg
Length 0.30 m
Span 29.00 m
Shape ? Box + pan
Manufacturer SPXS
Bus Type Starlink V2M
Phase Status In Orbit
Owner/State SPXS/US

Most Searched